Time,TemperatureF,DewpointF,PressureIn,WindDirection,WindDirectionDegrees,WindSpeedMPH,WindSpeedGustMPH,Humidity,HourlyPrecipIn,Conditions,Clouds,dailyrainin,SoftwareType,DateUTC
2013-03-20 00:12:00,46.7,26.0,30.10,SE,130,0.0,2.0,44,0.00,,,0.00,weatherlink.com 1.10,2013-03-20 04:12:00,
2013-03-20 00:27:00,46.3,22.0,30.10,SE,130,1.0,1.0,38,0.00,,,0.00,weatherlink.com 1.10,2013-03-20 04:27:00,
2013-03-20 00:42:00,46.2,22.0,30.10,SE,130,0.0,2.0,38,0.00,,,0.00,weatherlink.com 1.10,2013-03-20 04:42:00,
2013-03-20 00:57:00,46.0,20.0,30.10,South,169,0.0,2.0,36,0.00,,,0.00,weatherlink.com 1.10,2013-03-20 04:57:00,
2013-03-20 01:12:00,46.0,20.0,30.09,WNW,290,0.0,2.0,36,0.00,,,0.00,weatherlink.com 1.10,2013-03-20 05:12:00,
2013-03-20 01:27:00,45.9,20.0,30.10,SSW,203,0.0,2.0,36,0.00,,,0.00,weatherlink.com 1.10,2013-03-20 05:27:00,
2013-03-20 01:42:00,45.6,19.0,30.10,SSE,159,0.0,2.0,35,0.00,,,0.00,weatherlink.com 1.10,2013-03-20 05:42:00,
2013-03-20 01:57:00,45.6,21.0,30.10,SSE,159,1.0,2.0,38,0.00,,,0.00,weatherlink.com 1.10,2013-03-20 05:57:00,
2013-03-20 02:27:00,44.1,24.0,30.11,ESE,107,0.0,2.0,46,0.00,,,0.00,weatherlink.com 1.10,2013-03-20 06:27:00,
2013-03-20 02:42:00,43.6,21.0,30.11,ESE,107,0.0,1.0,40,0.00,,,0.00,weatherlink.com 1.10,2013-03-20 06:42:00,
2013-03-20 02:57:00,43.3,21.0,30.11,ESE,108,0.0,1.0,42,0.00,,,0.00,weatherlink.com 1.10,2013-03-20 06:57:00,
2013-03-20 03:12:00,43.3,20.0,30.10,ESE,108,0.0,1.0,39,0.00,,,0.00,weatherlink.com 1.10,2013-03-20 07:12:00,
2013-03-20 03:43:00,42.3,22.0,30.09,ESE,108,0.0,1.0,44,0.00,,,0.00,weatherlink.com 1.10,2013-03-20 07:43:00,
2013-03-20 03:58:00,41.3,25.0,30.09,ESE,108,0.0,1.0,53,0.00,,,0.00,weatherlink.com 1.10,2013-03-20 07:58:00,
2013-03-20 04:13:00,40.4,24.0,30.09,ESE,108,0.0,0.0,53,0.00,,,0.00,weatherlink.com 1.10,2013-03-20 08:13:00,
2013-03-20 04:28:00,40.1,25.0,30.09,ESE,108,0.0,0.0,56,0.00,,,0.00,weatherlink.com 1.10,2013-03-20 08:28:00,
2013-03-20 04:43:00,39.8,26.0,30.08,ESE,108,0.0,0.0,57,0.00,,,0.00,weatherlink.com 1.10,2013-03-20 08:43:00,
2013-03-20 04:58:00,40.4,23.0,30.08,ESE,108,0.0,2.0,51,0.00,,,0.00,weatherlink.com 1.10,2013-03-20 08:58:00,
2013-03-20 05:13:00,40.6,22.0,30.08,ESE,108,0.0,1.0,47,0.00,,,0.00,weatherlink.com 1.10,2013-03-20 09:13:00,
2013-03-20 05:28:00,41.2,25.0,30.08,ESE,108,0.0,2.0,52,0.00,,,0.00,weatherlink.com 1.10,2013-03-20 09:28:00,
2013-03-20 05:58:00,41.0,22.0,30.08,ESE,109,0.0,1.0,48,0.00,,,0.00,weatherlink.com 1.10,2013-03-20 09:58:00,
2013-03-20 06:13:00,40.8,24.0,30.08,ESE,109,0.0,0.0,52,0.00,,,0.00,weatherlink.com 1.10,2013-03-20 10:13:00,
2013-03-20 06:28:00,40.4,25.0,30.09,ESE,109,0.0,0.0,54,0.00,,,0.00,weatherlink.com 1.10,2013-03-20 10:28:00,
2013-03-20 06:43:00,40.0,24.0,30.10,ESE,109,0.0,0.0,53,0.00,,,0.00,weatherlink.com 1.10,2013-03-20 10:43:00,
2013-03-20 06:58:00,39.7,24.0,30.11,ESE,109,0.0,0.0,53,0.00,,,0.00,weatherlink.com 1.10,2013-03-20 10:58:00,
2013-03-20 07:43:00,38.3,25.0,30.11,ESE,109,0.0,0.0,60,0.00,,,0.00,weatherlink.com 1.10,2013-03-20 11:43:00,
2013-03-20 07:58:00,37.6,27.0,30.11,ESE,109,0.0,0.0,66,0.00,,,0.00,weatherlink.com 1.10,2013-03-20 11:58:00,
2013-03-20 08:13:00,36.9,26.0,30.11,ESE,109,0.0,0.0,64,0.00,,,0.00,weatherlink.com 1.10,2013-03-20 12:13:00,
2013-03-20 08:28:00,36.5,25.0,30.11,ESE,109,0.0,0.0,63,0.00,,,0.00,weatherlink.com 1.10,2013-03-20 12:28:00,
2013-03-20 08:43:00,36.5,26.0,30.11,ESE,109,0.0,0.0,65,0.00,,,0.00,weatherlink.com 1.10,2013-03-20 12:43:00,
2013-03-20 08:58:00,37.1,28.0,30.12,ESE,109,0.0,0.0,71,0.00,,,0.00,weatherlink.com 1.10,2013-03-20 12:58:00,
2013-03-20 09:13:00,39.3,27.0,30.12,ESE,109,0.0,0.0,62,0.00,,,0.00,weatherlink.com 1.10,2013-03-20 13:13:00,
2013-03-20 09:28:00,43.3,26.0,30.12,ESE,109,0.0,1.0,50,0.00,,,0.00,weatherlink.com 1.10,2013-03-20 13:28:00,
2013-03-20 09:43:00,45.4,24.0,30.12,ESE,109,1.0,2.0,44,0.00,,,0.00,weatherlink.com 1.10,2013-03-20 13:43:00,
2013-03-20 09:58:00,46.2,25.0,30.12,SE,132,3.0,3.0,44,0.00,,,0.00,weatherlink.com 1.10,2013-03-20 13:58:00,
2013-03-20 10:13:00,47.2,24.0,30.12,SE,137,0.0,3.0,40,0.00,,,0.00,weatherlink.com 1.10,2013-03-20 14:13:00,
2013-03-20 10:28:00,48.2,23.0,30.12,ESE,123,0.0,4.0,37,0.00,,,0.00,weatherlink.com 1.10,2013-03-20 14:28:00,
2013-03-20 10:43:00,49.4,25.0,30.11,ESE,123,1.0,3.0,38,0.00,,,0.00,weatherlink.com 1.10,2013-03-20 14:43:00,
2013-03-20 10:58:00,49.0,24.0,30.11,East,92,0.0,7.0,37,0.00,,,0.00,weatherlink.com 1.10,2013-03-20 14:58:00,
2013-03-20 11:28:00,50.9,22.0,30.09,SE,142,0.0,3.0,32,0.00,,,0.00,weatherlink.com 1.10,2013-03-20 15:28:00,
2013-03-20 11:43:00,51.6,21.0,30.09,SSE,152,4.0,5.0,30,0.00,,,0.00,weatherlink.com 1.10,2013-03-20 15:43:00,
2013-03-20 12:29:00,54.6,26.0,30.07,NW,304,0.0,4.0,33,0.00,,,0.00,weatherlink.com 1.10,2013-03-20 16:29:00,
2013-03-20 12:44:00,54.9,25.0,30.06,NNE,13,0.0,4.0,32,0.00,,,0.00,weatherlink.com 1.10,2013-03-20 16:44:00,
2013-03-20 12:59:00,55.7,24.0,30.05,ESE,112,1.0,5.0,29,0.00,,,0.00,weatherlink.com 1.10,2013-03-20 16:59:00,
2013-03-20 13:14:00,55.9,24.0,30.04,NW,314,1.0,7.0,29,0.00,,,0.00,weatherlink.com 1.10,2013-03-20 17:14:00,
2013-03-20 13:29:00,56.5,24.0,30.04,WNW,296,1.0,5.0,29,0.00,,,0.00,weatherlink.com 1.10,2013-03-20 17:29:00,
2013-03-20 13:44:00,57.3,27.0,30.03,ESE,115,1.0,3.0,32,0.00,,,0.00,weatherlink.com 1.10,2013-03-20 17:44:00,
2013-03-20 13:59:00,57.6,25.0,30.02,West,278,1.0,6.0,28,0.00,,,0.00,weatherlink.com 1.10,2013-03-20 17:59:00,
2013-03-20 14:14:00,57.3,25.0,30.00,NNW,336,1.0,7.0,29,0.00,,,0.00,weatherlink.com 1.10,2013-03-20 18:14:00,
2013-03-20 14:29:00,58.4,26.0,29.99,NW,310,6.0,6.0,29,0.00,,,0.00,weatherlink.com 1.10,2013-03-20 18:29:00,
2013-03-20 14:44:00,58.1,26.0,29.98,WSW,246,1.0,5.0,29,0.00,,,0.00,weatherlink.com 1.10,2013-03-20 18:44:00,
2013-03-20 14:59:00,57.4,25.0,29.98,WSW,249,1.0,10.0,29,0.00,,,0.00,weatherlink.com 1.10,2013-03-20 18:59:00,
2013-03-20 15:14:00,57.7,25.0,29.97,NW,306,0.0,13.0,29,0.00,,,0.00,weatherlink.com 1.10,2013-03-20 19:14:00,
2013-03-20 15:44:00,57.9,26.0,29.95,WNW,293,0.0,6.0,30,0.00,,,0.00,weatherlink.com 1.10,2013-03-20 19:44:00,
2013-03-20 15:59:00,58.0,27.0,29.94,WNW,296,1.0,6.0,30,0.00,,,0.00,weatherlink.com 1.10,2013-03-20 19:59:00,
2013-03-20 16:14:00,57.5,26.0,29.93,West,272,2.0,6.0,30,0.00,,,0.00,weatherlink.com 1.10,2013-03-20 20:14:00,
2013-03-20 16:29:00,57.1,25.0,29.93,NW,304,7.0,16.0,29,0.00,,,0.00,weatherlink.com 1.10,2013-03-20 20:29:00,
2013-03-20 16:59:00,55.6,25.0,29.92,NNW,340,3.0,8.0,31,0.00,,,0.00,weatherlink.com 1.10,2013-03-20 20:59:00,
2013-03-20 17:14:00,54.9,26.0,29.91,NNW,342,9.0,9.0,33,0.00,,,0.00,weatherlink.com 1.10,2013-03-20 21:14:00,
2013-03-20 17:29:00,54.0,26.0,29.91,NNW,336,0.0,8.0,34,0.00,,,0.00,weatherlink.com 1.10,2013-03-20 21:29:00,
2013-03-20 17:44:00,54.3,27.0,29.90,NNW,344,0.0,9.0,35,0.00,,,0.00,weatherlink.com 1.10,2013-03-20 21:44:00,
2013-03-20 17:59:00,55.1,26.0,29.90,SW,231,3.0,8.0,33,0.00,,,0.00,weatherlink.com 1.10,2013-03-20 21:59:00,
2013-03-20 18:14:00,54.4,28.0,29.90,NW,318,3.0,5.0,36,0.00,,,0.00,weatherlink.com 1.10,2013-03-20 22:14:00,
2013-03-20 18:29:00,53.4,27.0,29.90,SSW,200,0.0,4.0,36,0.00,,,0.00,weatherlink.com 1.10,2013-03-20 22:29:00,
2013-03-20 18:44:00,53.5,26.0,29.90,West,259,1.0,3.0,35,0.00,,,0.00,weatherlink.com 1.10,2013-03-20 22:44:00,
2013-03-20 19:14:00,52.4,26.0,29.90,West,271,3.0,13.0,36,0.00,,,0.00,weatherlink.com 1.10,2013-03-20 23:14:00,
2013-03-20 19:29:00,50.9,28.0,29.91,NNW,330,2.0,13.0,41,0.00,,,0.00,weatherlink.com 1.10,2013-03-20 23:29:00,
2013-03-20 19:44:00,50.3,28.0,29.91,WSW,257,0.0,7.0,42,0.00,,,0.00,weatherlink.com 1.10,2013-03-20 23:44:00,
2013-03-20 19:59:00,49.4,29.0,29.91,WNW,302,1.0,15.0,46,0.00,,,0.00,weatherlink.com 1.10,2013-03-20 23:59:00,
2013-03-20 20:14:00,47.1,32.0,29.93,NNW,342,1.0,9.0,56,0.00,,,0.00,weatherlink.com 1.10,2013-03-21 00:14:00,
2013-03-20 20:29:00,45.3,32.0,29.94,WNW,292,0.0,7.0,60,0.00,,,0.00,weatherlink.com 1.10,2013-03-21 00:29:00,
2013-03-20 20:44:00,44.2,32.0,29.95,NW,308,4.0,8.0,63,0.00,,,0.00,weatherlink.com 1.10,2013-03-21 00:44:00,
2013-03-20 21:00:00,43.4,32.0,29.95,West,268,1.0,6.0,64,0.00,,,0.00,weatherlink.com 1.10,2013-03-21 01:00:00,
2013-03-20 21:15:00,42.9,31.0,29.95,WNW,288,0.0,6.0,64,0.00,,,0.00,weatherlink.com 1.10,2013-03-21 01:15:00,
2013-03-20 21:29:00,42.7,31.0,29.96,WNW,299,0.0,7.0,64,0.00,,,0.00,weatherlink.com 1.10,2013-03-21 01:29:00,
2013-03-20 21:44:00,42.1,32.0,29.96,North,351,0.0,7.0,67,0.00,,,0.00,weatherlink.com 1.10,2013-03-21 01:44:00,
2013-03-20 21:59:00,41.3,31.0,29.96,NW,326,0.0,6.0,67,0.00,,,0.00,weatherlink.com 1.10,2013-03-21 01:59:00,
2013-03-20 22:14:00,40.8,31.0,29.96,SSE,161,0.0,10.0,67,0.00,,,0.00,weatherlink.com 1.10,2013-03-21 02:14:00,
2013-03-20 22:29:00,40.3,30.0,29.97,SW,227,0.0,2.0,67,0.00,,,0.00,weatherlink.com 1.10,2013-03-21 02:29:00,
2013-03-20 22:44:00,39.6,30.0,29.97,NNW,340,1.0,5.0,68,0.00,,,0.00,weatherlink.com 1.10,2013-03-21 02:44:00,
2013-03-20 22:59:00,39.3,30.0,29.98,NNW,342,0.0,4.0,69,0.00,,,0.00,weatherlink.com 1.10,2013-03-21 02:59:00,
2013-03-20 23:14:00,38.9,30.0,29.98,NW,315,1.0,2.0,70,0.00,,,0.00,weatherlink.com 1.10,2013-03-21 03:14:00,
2013-03-20 23:29:00,38.4,29.0,29.98,NNW,346,0.0,3.0,70,0.00,,,0.00,weatherlink.com 1.10,2013-03-21 03:29:00,
2013-03-20 23:45:00,38.1,29.0,29.98,NW,321,0.0,3.0,70,0.00,,,0.00,weatherlink.com 1.10,2013-03-21 03:45:00,